Find Starlink 30239

NORAD ID: 57291 Int'l Des: 2023-096 Owner: SPXS Country: US Constellation: starlink operational
LEOCIRCULAR

リアルタイム位置

3D地球を読み込み中...

Starlink 30239について

説明を読み込み中...

次回通過

Passes for default location (London). Set your location on the main map for personalized predictions.

高度履歴

Loading altitude history...

軌道要素

1 57291U 23096B 26129.99109674 -.00001190 00000-0 -33753-4 0 9997
2 57291 43.0007 236.8965 0001094 286.3815 73.6916 15.27570119156996
Epoch: May 9, 2026 • Age: 19 hours

現在のステータス

高度 484.0 km
速度 7.63 km/s
衛星直下点 28.05°N, 139.1°W
打ち上げ日 Jul 10, 2023
運用期間 2.8 years
タイプ internet

技術仕様

分類 Payload
質量 730.00 kg
乾燥質量 700.00 kg
総質量 730.00 kg
長さ 0.30 m
直径 4.10 m
スパン 29.00 m
形状 Box + pan
製造者 SPXS
バスタイプ Starlink V2M
フェーズステータス In Orbit
所有者/国 SPXS/US

Most Searched